Location: ?????????
(53.2086°N, 54.0693°E)
Time: 04:32:07
(UTC+00:00)

NOAA 15 - Pass Details

Date: 08 December 2019
Orbit: 798 x 812 km, 98.7° (Epoch: 22 January)

Event Time Altitude Azimuth Distance (km) Brightness Sun altitude
Rises 14:23:42 0° 156° (SSE) 3,307 7.7 -19.2°
Reaches altitude 10° 14:26:01 10° 155° (SSE) 2,378 6.9 -19.5°
Maximum altitude 14:31:16 76° 71° (ENE) 831 4.4 -20.3°
Drops below altitude 10° 14:36:32 10° 347° (NNW) 2,387 7.1 -21.1°
Sets 14:38:52 0° 346° (NNW) 3,321 7.9 -21.4°
